Torna al catalogo

STARLINK-37043

AttivoComunicazioniVLEO
NORAD 68246·PAYLOAD·🇺🇸 United States

Lanciato Mar 17, 2026 da Vandenberg Space Force Base

Loading…

Prossimi Passaggi (prossime 24 ore)

TLE

AggiornatoSource: CelesTrak SupGP

Epoca: Sep 15, 2026, 02:50 UTC

1 68246C 26054Q   26258.11854167  .00046323  00000+0  13684-2 0  2588
2 68246  53.1570 127.0068 0001201  76.0697 330.7754 15.34372104    12

Traccia STARLINK-37043 in tempo reale con AllMySat

Download on the App Store